JA3VQW-13 Weather Reports


time (UTC)temp
C
wind
direction
speed
KPH
gust
KPH
rain 1hr
cm
rain 24hr
cm
rain mn
cm
humidity
%
barometer
mb
20260506114131 18 180 0.0 0.0 0.00 0.00 0.00 54 1008.0
20260506113618 18 180 0.0 0.0 0.00 0.00 0.00 54 1008.0
20260506112632 18 270 0.0 0.0 0.00 0.00 0.00 55 1008.0
20260506111130 18 270 0.0 0.0 0.00 0.00 0.00 54 1008.0
20260506110618 18 270 0.0 0.0 0.00 0.00 0.00 54 1008.0
20260506105632 18 270 0.0 0.0 0.00 0.00 0.00 54 1008.0
20260506104132 18 270 0.0 0.0 0.00 0.00 0.00 53 1008.0
20260506103617 18 270 0.0 0.0 0.00 0.00 0.00 53 1008.0
20260506102631 18 270 0.0 0.0 0.00 0.00 0.00 52 1008.0
20260506101132 18 270 0.0 0.0 0.00 0.00 0.00 50 1008.0
20260506100617 18 270 0.0 0.0 0.00 0.00 0.00 49 1008.0
20260506095632 19 270 0.0 0.0 0.00 0.00 0.00 49 1008.0
20260506094132 19 270 0.0 0.0 0.00 0.00 0.00 47 1008.0
20260506093617 19 270 0.0 0.0 0.00 0.00 0.00 47 1008.0
20260506091131 19 270 0.0 0.0 0.00 0.00 0.00 46 1008.0
20260506090618 19 270 0.0 0.0 0.00 0.00 0.00 46 1009.0
20260506085631 20 270 0.0 0.0 0.00 0.00 0.00 45 1009.0
20260506084131 20 270 0.0 0.0 0.00 0.00 0.00 44 1009.0
20260506083618 20 270 0.0 0.0 0.00 0.00 0.00 43 1008.0
20260506082631 20 270 0.0 0.0 0.00 0.00 0.00 42 1008.0
20260506081132 21 270 0.0 3.2 0.00 0.00 0.00 40 1008.0
20260506080618 21 270 0.0 0.0 0.00 0.00 0.00 40 1009.0
20260506072632 21 270 0.0 0.0 0.00 0.00 0.00 38 1009.0
20260506071131 22 270 0.0 0.0 0.00 0.00 0.00 36 1008.0
20260506070617 22 270 0.0 0.0 0.00 0.00 0.00 36 1009.0
20260506061132 21 270 0.0 0.0 0.00 0.00 0.00 34 1009.0
20260506060617 22 270 0.0 0.0 0.00 0.00 0.00 34 1009.0
20260506051131 23 225 0.0 0.0 0.00 0.00 0.00 32 1010.0
20260506050617 22 225 0.0 0.0 0.00 0.00 0.00 33 1009.0
20260506044131 21 225 0.0 0.0 0.00 0.00 0.00 33 1010.0
20260506043616 21 225 0.0 0.0 0.00 0.00 0.00 33 1010.0
20260506042631 21 225 0.0 0.0 0.00 0.00 0.00 33 1010.0
20260506041130 21 225 0.0 0.0 0.00 0.00 0.00 35 1010.0
20260506040618 21 225 0.0 0.0 0.00 0.00 0.00 36 1010.0
20260506035632 21 225 0.0 0.0 0.00 0.00 0.00 36 1010.0
20260506034132 20 225 0.0 0.0 0.00 0.00 0.00 39 1010.0
20260506033617 20 225 0.0 0.0 0.00 0.00 0.00 41 1011.0
20260506032632 19 180 0.0 0.0 0.00 0.00 0.00 43 1011.0
20260506031130 18 180 0.0 0.0 0.00 0.00 0.00 46 1011.0
20260506030616 18 180 0.0 0.0 0.00 0.00 0.00 46 1011.0
20260506025631 18 180 0.0 0.0 0.00 0.00 0.00 45 1011.0
20260506024131 18 163 0.0 8.0 0.00 0.00 0.00 45 1011.0
20260506023616 18 135 0.0 0.0 0.00 0.00 0.00 45 1011.0
20260506022630 18 225 0.0 0.0 0.00 0.00 0.00 45 1011.0
20260506021131 18 225 0.0 0.0 0.00 0.00 0.00 45 1011.0
20260506020618 18 225 0.0 0.0 0.00 0.00 0.00 44 1012.0
20260506015631 18 225 0.0 0.0 0.00 0.00 0.00 41 1012.0
20260506014130 18 270 0.0 0.0 0.00 0.00 0.00 37 1012.0
20260506013617 18 225 0.0 3.2 0.00 0.00 0.00 38 1012.0
20260506012631 18 135 3.2 4.8 0.00 0.00 0.00 36 1012.0
20260506011130 18 135 0.0 0.0 0.00 0.00 0.00 36 1012.0
20260506010617 18 135 0.0 9.7 0.00 0.00 0.00 36 1011.0
20260506005630 18 135 4.8 9.7 0.00 0.00 0.00 35 1011.0
20260506004130 19 270 0.0 3.2 0.00 0.00 0.00 38 1012.0
20260506003617 19 270 0.0 0.0 0.00 0.00 0.00 40 1012.0
20260506002631 18 270 0.0 0.0 0.00 0.00 0.00 41 1012.0
20260506001131 18 225 0.0 0.0 0.00 0.00 0.00 43 1012.0
20260506000616 18 225 0.0 0.0 0.00 0.00 0.00 44 1012.0
20260505235631 18 225 0.0 0.0 0.00 0.00 0.00 45 1012.0
20260505234131 17 225 0.0 0.0 0.00 0.00 0.00 47 1011.0
20260505233617 17 225 0.0 0.0 0.00 0.00 0.00 47 1011.0
20260505232630 17 225 0.0 0.0 0.00 0.00 0.00 46 1011.0
20260505231130 17 225 0.0 0.0 0.00 0.00 0.00 47 1011.0
20260505230617 17 225 0.0 0.0 0.00 0.00 0.00 47 1011.0
20260505225631 17 225 0.0 0.0 0.00 0.00 0.00 47 1011.0
20260505224131 16 315 0.0 3.2 0.00 0.00 0.00 48 1012.0
20260505223616 16 253 0.0 4.8 0.00 0.00 0.00 48 1012.0
20260505222631 16 225 0.0 0.0 0.00 0.00 0.00 49 1012.0
20260505221131 16 225 0.0 0.0 0.00 0.00 0.00 50 1012.0
20260505220616 16 225 0.0 0.0 0.00 0.00 0.00 51 1012.0
20260505215630 15 225 0.0 0.0 0.00 0.00 0.00 52 1012.0
20260505214131 15 225 0.0 0.0 0.00 0.00 0.00 53 1012.0
20260505213616 15 225 0.0 0.0 0.00 0.00 0.00 53 1012.0
20260505212631 15 225 0.0 0.0 0.00 0.00 0.00 54 1012.0
20260505211131 15 225 0.0 0.0 0.00 0.00 0.00 54 1011.0
20260505210615 15 225 0.0 0.0 0.00 0.00 0.00 54 1011.0
20260505205629 15 225 0.0 0.0 0.00 0.00 0.00 54 1011.0
20260505204130 15 225 0.0 0.0 0.00 0.00 0.00 54 1011.0
20260505203617 15 225 0.0 0.0 0.00 0.00 0.00 54 1011.0
20260505202630 14 225 0.0 0.0 0.00 0.00 0.00 53 1011.0
20260505201130 15 225 0.0 0.0 0.00 0.00 0.00 51 1011.0
20260505200617 15 225 0.0 0.0 0.00 0.00 0.00 51 1011.0
20260505195631 15 225 0.0 0.0 0.00 0.00 0.00 51 1011.0
20260505194130 15 225 0.0 0.0 0.00 0.00 0.00 50 1011.0
20260505193616 15 225 0.0 0.0 0.00 0.00 0.00 50 1011.0
20260505192629 15 225 0.0 0.0 0.00 0.00 0.00 50 1011.0
20260505191129 15 225 0.0 0.0 0.00 0.00 0.00 49 1011.0
20260505190616 15 225 0.0 0.0 0.00 0.00 0.00 49 1011.0
20260505185631 15 225 0.0 0.0 0.00 0.00 0.00 49 1011.0
20260505184131 15 225 0.0 0.0 0.00 0.00 0.00 48 1011.0
20260505183616 15 225 0.0 0.0 0.00 0.00 0.00 48 1011.0
20260505182631 15 225 0.0 0.0 0.00 0.00 0.00 49 1011.0
20260505181131 15 225 0.0 0.0 0.00 0.00 0.00 46 1011.0
20260505180616 15 225 0.0 0.0 0.00 0.00 0.00 46 1012.0
20260505175630 15 225 0.0 0.0 0.00 0.00 0.00 45 1012.0
20260505174129 15 225 0.0 0.0 0.00 0.00 0.00 46 1012.0
20260505173615 15 225 0.0 0.0 0.00 0.00 0.00 45 1011.0
20260505172630 15 225 0.0 0.0 0.00 0.00 0.00 46 1011.0
20260505171130 15 225 0.0 0.0 0.00 0.00 0.00 46 1011.0
20260505170615 15 225 0.0 0.0 0.00 0.00 0.00 46 1012.0
20260505165630 15 225 0.0 0.0 0.00 0.00 0.00 46 1012.0
20260505164130 15 225 0.0 0.0 0.00 0.00 0.00 45 1012.0
20260505163616 15 225 0.0 0.0 0.00 0.00 0.00 43 1012.0
20260505162631 15 225 0.0 0.0 0.00 0.00 0.00 42 1012.0
20260505161131 16 225 0.0 0.0 0.00 0.00 0.00 41 1012.0
20260505160615 16 225 0.0 0.0 0.00 0.00 0.00 42 1012.0
20260505152629 16 225 0.0 0.0 0.00 0.00 0.00 43 1012.0
20260505151130 16 225 0.0 0.0 0.00 0.00 0.00 42 1012.0
20260505150615 16 225 0.0 0.0 0.00 0.00 0.00 42 1012.0
20260505140618 17 135 0.0 0.0 0.00 0.00 0.00 37 1012.0
20260505124132 18 270 0.0 0.0 0.00 0.00 0.00 33 1012.0
20260505123618 18 270 0.0 0.0 0.00 0.00 0.00 33 1012.0
20260505122632 18 270 0.0 0.0 0.00 0.00 0.00 33 1012.0
20260505121133 18 270 0.0 0.0 0.00 0.00 0.00 32 1012.0
20260505120618 18 270 0.0 0.0 0.00 0.00 0.00 32 1011.0
20260505115633 18 270 0.0 3.2 0.00 0.00 0.00 32 1011.0